Location: STAR School
(35.3054°N, 111.2976°W)
Time: 14:59:43
(UTC-07:00)

Explorer 11/Cluster Stage 4 - Visible Passes

Search period start: 21 May 2019 00:00
Search period end: 31 May 2019 00:00
Orbit: 467 x 1260 km, 28.8° (Epoch: 20 May)

Date Brightness Start Highest point End Pass type
(mag) Time Alt. Az. Time Alt. Az. Time Alt. Az.
21 May 7.8 03:49:13 16° S 03:50:12 17° SSE 03:52:53 10° ESE visible
22 May 7.6 03:39:02 20° S 03:39:40 20° SSE 03:42:48 10° ESE visible
23 May 7.4 03:28:50 24° S 03:29:08 24° SSE 03:32:39 10° ESE visible
24 May 7.3 03:18:35 28° S 03:18:35 28° S 03:22:25 10° ESE visible
25 May 7.3 03:08:20 31° SSE 03:08:20 31° SSE 03:12:09 10° ESE visible
26 May 7.2 02:58:04 34° SSE 02:58:04 34° SSE 03:01:51 10° ESE visible
26 May 6.8 04:40:58 10° WSW 04:45:36 36° S 04:49:27 10° ESE visible
27 May 7.3 02:47:47 36° SSE 02:47:47 36° SSE 02:51:31 10° ESE visible
27 May 6.9 04:30:12 10° WSW 04:35:03 36° S 04:39:03 10° ESE visible
28 May 7.4 02:37:33 36° SE 02:37:33 36° SE 02:41:09 10° ESE visible
28 May 7.0 04:19:41 11° WSW 04:24:29 36° S 04:28:38 10° SE visible
29 May 7.5 02:27:21 35° SE 02:27:21 35° SE 02:30:45 10° ESE visible
29 May 7.0 04:09:29 14° WSW 04:13:54 35° SSW 04:18:11 10° SE visible
30 May 7.7 02:17:13 32° SE 02:17:13 32° SE 02:20:20 10° ESE visible
30 May 7.2 03:59:21 16° WSW 04:03:17 35° SSW 04:07:43 10° SE visible
